Location: Asheville, NC
(35.6000°N, 82.5500°W)
Time: 16:53:29
(UTC-05:00)

N. Korean satellite - Pass Details

Date: 16 February 2018
Orbit: 459 x 514 km, 97.2° (Epoch: 17 February)

Event Time Altitude Azimuth Distance (km) Brightness Sun altitude
Rises 19:10:08 0° 197° (SSW) 2,464 10.5 -12.2°
Reaches altitude 10° 19:12:32 10° 215° (SW) 1,593 9.8 -12.7°
Maximum altitude 19:15:07 20° 264° (W) 1,115 9.5 -13.2°
Drops below altitude 10° 19:17:43 10° 314° (NW) 1,604 9.8 -13.7°
Sets 19:20:10 0° 332° (NNW) 2,488 10.5 -14.2°
